STARLINK-36366, 68122

Orbit data source: Space-Track

STARLINK-36366, 68122 is a payload satellite owned by SpaceX/Seattle (US) in SSO that was launched on Sun, 08 Mar 2026 UTC via an FALCON 9 launch vehicle from the Air Force Western Test Range (AFWTR). Payload-class satellites include a variety of spacecraft equipped with specific instruments for various scientific and technological missions. These include communications satellites like Starlink; space stations such as the ISS; scientific satellites like the Hubble; Earth observation satellites from companies like Planet Labs, Umbra, and HawkEye 360; GPS; miniature CubeSats for education and research; and military/defense satellites.

Loading next visibility...
Identifier
68122, 2026-044X
Orbit
SSO
Country
Flag of USUS
Related business
Manufacturer
SpaceX/Seattle
Mission
Operational spacecraft
Bus & Motor
STARLINK V2MO, Unknown motor
Mass
575 kg wet, ~530 kg dry
Launch date (UTC)
2026-03-08 (2 months ago)
Launch vehicle
FALCON 9
Launch site
Air Force Western Test Range (AFWTR)
Object type
Payload
Rocket body
Debris
Shape & HBR
Unknown shape, 17.7 m
Radar Cross Section
RCS unknown

Expand to show TLE details & history
Last TLE update: 12 hours ago

TLE from 12 hours ago
0 STARLINK-36366
1 68122U 26044X   26131.89533411  .00012517  00000-0  38923-3 0  9996
2 68122  97.2836  92.7748 0002715 109.6397 250.5138 15.33456939 11276
Epoch: 2026-05-11T21:29Z
TLE epoch observation values (Epoch: 2026-05-11T21:29:16.867Z)
Latitude
-0.0001°
Longitude
-99.22297°
Altitude
469.24 km
Speed
7.631 km/s
True Right ascension
06h 11m 05s
True Declination
0° 00' 00"
Sunlit
Object was in daylight at epoch
Visualization orbit readout
Latitude
Unknown
Longitude
Unknown
Altitude
Unknown
Speed
Unknown
Apparent Right ascension
Unknown
Apparent Declination
Unknown
Sunlit
N/A
Visualization observer readout
Local Sidereal Time
17:44:26
Azimuth
Unknown
Elevation
Unknown
Doppler factor
Unknown
Orbital elements
Apogee altitude
464.308 km
Perigee altitude
460.593 km
Semi-major axis
6,840.587 km
Eccentricity
0.00027
Inclination
97.2836°
RAAN
92.7748°
Arg. of periapsis
109.6397°
True anomaly
250.48447°
Mean anomaly
250.5138°
Eccentric anomaly
250.49914°
Mean motion
3.83622 °/min
Orbital period
93.84 mins
BSTAR
0.00038923
Loading maneuver chart data...
Computing Atmospheric mass density...
Loading historical data...
Loading historical data...
Loading historical data...
Loading historical data...
Loading historical data...
Loading historical data...
Loading historical data...

Documentation

Showing up to 5 results
|